Time,TemperatureF,DewpointF,PressureIn,WindDirection,WindDirectionDegrees,WindSpeedMPH,WindSpeedGustMPH,Humidity,HourlyPrecipIn,Conditions,Clouds,dailyrainin,SoftwareType,DateUTC
2013-01-06 15:12:00,27.0,19.0,-100.00,West,265,4.0,9.0,71,-99.99,,,-99.99,,2013-01-06 21:12:00,
2013-01-06 15:22:00,27.0,19.0,-100.00,West,265,4.0,9.0,71,-99.99,,,-99.99,,2013-01-06 21:22:00,
2013-01-06 15:53:00,28.0,18.0,-100.00,West,265,7.0,9.0,68,-99.99,,,-99.99,,2013-01-06 21:53:00,
2013-01-06 16:02:00,28.0,18.0,-100.00,West,265,7.0,9.0,68,-99.99,,,-99.99,,2013-01-06 22:02:00,
2013-01-06 16:12:00,28.0,18.0,-100.00,West,265,7.0,9.0,68,-99.99,,,-99.99,,2013-01-06 22:12:00,
2013-01-06 16:22:00,28.0,18.0,-100.00,West,265,7.0,9.0,68,-99.99,,,-99.99,,2013-01-06 22:22:00,
2013-01-06 16:43:00,26.0,16.0,-100.00,West,265,4.0,9.0,68,-99.99,,,-99.99,,2013-01-06 22:43:00,
2013-01-06 16:53:00,26.0,17.0,-100.00,WSW,255,6.0,9.0,68,-99.99,,,-99.99,,2013-01-06 22:53:00,
2013-01-06 17:02:00,26.0,17.0,-100.00,WSW,255,6.0,9.0,68,-99.99,,,-99.99,,2013-01-06 23:02:00,
2013-01-06 17:12:00,26.0,17.0,-100.00,WSW,255,6.0,9.0,68,-99.99,,,-99.99,,2013-01-06 23:12:00,
2013-01-06 17:22:00,26.0,17.0,-100.00,WSW,255,6.0,9.0,68,-99.99,,,-99.99,,2013-01-06 23:22:00,
2013-01-06 17:53:00,20.0,14.0,-100.00,WSW,245,2.0,5.0,76,-99.99,,,-99.99,,2013-01-06 23:53:00,
2013-01-06 18:02:00,20.0,14.0,-100.00,WSW,245,2.0,5.0,76,-99.99,,,-99.99,,2013-01-07 00:02:00,
2013-01-06 18:12:00,20.0,14.0,-100.00,WSW,245,2.0,5.0,76,-99.99,,,-99.99,,2013-01-07 00:12:00,
2013-01-06 18:23:00,20.0,14.0,-100.00,WSW,245,2.0,5.0,76,-99.99,,,-99.99,,2013-01-07 00:23:00,
2013-01-06 18:53:00,14.0,10.0,-100.00,SW,220,2.0,3.0,85,-99.99,,,-99.99,,2013-01-07 00:53:00,
2013-01-06 19:02:00,14.0,10.0,-100.00,SW,220,2.0,3.0,85,-99.99,,,-99.99,,2013-01-07 01:02:00,
2013-01-06 19:12:00,14.0,10.0,-100.00,SW,220,2.0,3.0,85,-99.99,,,-99.99,,2013-01-07 01:12:00,
2013-01-06 19:23:00,14.0,10.0,-100.00,SW,220,2.0,3.0,85,-99.99,,,-99.99,,2013-01-07 01:23:00,
2013-01-06 19:53:00,12.0,9.0,-100.00,SSE,155,0.0,0.0,90,-99.99,,,-99.99,,2013-01-07 01:53:00,
2013-01-06 20:02:00,12.0,9.0,-100.00,SSE,155,0.0,0.0,90,-99.99,,,-99.99,,2013-01-07 02:02:00,
2013-01-06 20:12:00,12.0,9.0,-100.00,SSE,155,0.0,0.0,90,-99.99,,,-99.99,,2013-01-07 02:12:00,
2013-01-06 20:22:00,12.0,9.0,-100.00,SSE,155,0.0,0.0,90,-99.99,,,-99.99,,2013-01-07 02:22:00,
2013-01-06 20:53:00,10.0,8.0,-100.00,NW,325,0.0,0.0,93,-99.99,,,-99.99,,2013-01-07 02:53:00,
2013-01-06 21:02:00,10.0,8.0,-100.00,NW,325,0.0,0.0,93,-99.99,,,-99.99,,2013-01-07 03:02:00,
2013-01-06 21:12:00,10.0,8.0,-100.00,NW,325,0.0,0.0,93,-99.99,,,-99.99,,2013-01-07 03:12:00,
2013-01-06 21:22:00,8.0,7.0,-100.00,WSW,245,0.0,0.0,94,-99.99,,,-99.99,,2013-01-07 03:22:00,
2013-01-06 21:33:00,8.0,7.0,-100.00,WSW,245,0.0,0.0,94,-99.99,,,-99.99,,2013-01-07 03:33:00,
2013-01-06 21:43:00,8.0,7.0,-100.00,WSW,245,0.0,0.0,94,-99.99,,,-99.99,,2013-01-07 03:43:00,
2013-01-06 21:52:00,7.0,6.0,-100.00,SE,130,0.0,0.0,94,-99.99,,,-99.99,,2013-01-07 03:52:00,
2013-01-06 22:02:00,7.0,6.0,-100.00,SE,130,0.0,0.0,94,-99.99,,,-99.99,,2013-01-07 04:02:00,
2013-01-06 22:12:00,7.0,6.0,-100.00,East,100,0.0,0.0,94,-99.99,,,-99.99,,2013-01-07 04:12:00,
2013-01-06 22:22:00,7.0,6.0,-100.00,East,100,0.0,0.0,94,-99.99,,,-99.99,,2013-01-07 04:22:00,
2013-01-06 22:32:00,7.0,6.0,-100.00,East,100,0.0,0.0,94,-99.99,,,-99.99,,2013-01-07 04:32:00,
2013-01-06 22:42:00,7.0,6.0,-100.00,East,100,0.0,0.0,94,-99.99,,,-99.99,,2013-01-07 04:42:00,
2013-01-06 23:53:00,5.0,3.0,-100.00,SE,140,2.0,2.0,94,-99.99,,,-99.99,,2013-01-07 05:53:00,